Regional Weather Roundup
Issued by NWS

Home | Current Version | Previous Version | Graphics & Text | Print | Product List | Glossary On
Versions: 1 2 3 4 5 6 7 8 9 10 11 12 13 14 15 16 17 18 19 20 21 22 23 24 25 26 27 28 29 30 31 32 33 34 35 36 37 38 39 40 41 42 43 44 45 46 47 48 49 50
000
ASUS43 KLOT 252003
RWRIL

ILLINOIS REGIONAL WEATHER ROUNDUP
NATIONAL WEATHER SERVICE CHICAGO/ROMEOVILLE IL
300 PM CDT WED MAY 25 2016

NOTE: "FAIR" INDICATES FEW OR NO CLOUDS BELOW 12,000 FEET WITH NO
SIGNIFICANT WEATHER AND/OR OBSTRUCTIONS TO VISIBILITY.

* THESE STATIONS ARE NOT UNDER NWS QUALITY CONTROL. THEY ALSO MAY NOT
  REPORT WEATHER SUCH AS PRECIPITATION OR FOG.

ILZ001-002-007-009-015-016-024-252100-
NORTHWEST ILLINOIS

CITY           SKY/WX    TMP DP  RH WIND       PRES   REMARKS
MOLINE         PTSUNNY   82  65  56 S9        29.88F HX  84
STERLING*      TSTM      75  69  81 W14G20    29.90F
$$

ILZ003-004-008-010-011-017-018-252100-
NORTH CENTRAL ILLINOIS

CITY           SKY/WX    TMP DP  RH WIND       PRES   REMARKS
ROCKFORD       CLOUDY    85  58  39 S14       29.90F HX  84
FREEPORT*      CLOUDY    83  60  44 S14G21    29.91F HX  83
ROCHELLE*      CLOUDY    86  58  37 S15       29.89F HX  85
$$

ILZ005-006-012>014-019>023-252100-
NORTHEAST ILLINOIS

CITY           SKY/WX    TMP DP  RH WIND       PRES   REMARKS
CHICAGO-OHARE  PTSUNNY   83  60  45 S10       29.92F HX  83
CHICAGO-MIDWAY PTSUNNY   88  59  37 S13G21    29.92F HX  87
AURORA         PTSUNNY   88  61  40 SE12G24   29.91F HX  88
LANSING*       MOSUNNY   87  57  36 S14       29.94F HX  85
WAUKEGAN       MOSUNNY   78  63  59 E9        29.94F HX  80
DUPAGE AIRPORT CLOUDY    85  60  42 SE13      29.92F HX  85
WHEELING       PTSUNNY   84  60  44 SE13      29.93F HX  84
NORTHERLY ISL    N/A     67  58  72 E8          N/A
NORTHERLY ISL    N/A     67  58  72 E8          N/A
$$

LMZ740>746-252100-
SOUTHERN LAKE MICHIGAN

STATION/POSITION SKY/WX   TEMP    WIND        PRES    VSBY  WAVE
                          AIR SEA DIR/SP/G                  HT/PER
                          (F)     (DEG/KT/KT) (MB)    (MI)  (FT/S)
SOUTHERN BUOY              59 53  140/  4/  4 1015.0          0
WILMETTE HARBOR            63 58  140/  8/ 10   N/A           1/ 2
HARRISON CRIB              76     100/ 16/ 16   N/A
BURNHAM HARBOR             68      90/  6/ 10   N/A
CALUMET HARBOR                     70/  9/ 12   N/A
BURNS HARBOR               84     180/  7/ 14 1014.9F
MICHIGAN CITY              68      10/  9/  9   N/A
MICHIGAN CITY 6N           66 61   40/  6/  8   N/A           0
ST. JOSEPH                 69 65   10/  4/  6   N/A           0
$$

ILZ025>027-034>036-040-047-049-050-058-095>099-252100-
WEST-CENTRAL ILLINOIS

CITY           SKY/WX    TMP DP  RH WIND       PRES   REMARKS
QUINCY         MOSUNNY   83  64  52 S10       29.92F HX  84
MACOMB*        CLOUDY    82  64  56 SW10      29.96S HX  83
PITTSFIELD*    PTSUNNY   83  68  61 S13G18    29.95S HX  86
$$

ILZ028>032-037-038-041>044-048-051>054-059>061-252100-
CENTRAL ILLINOIS

CITY           SKY/WX    TMP DP  RH WIND       PRES   REMARKS
BLOOMINGTON    CLOUDY    84  66  54 SW23      29.96S HX  86
DECATUR        CLOUDY    79  65  62 S20G28    29.98F HX  81
PEORIA         CLOUDY    85  65  51 S18       29.91S HX  86
SPRINGFIELD    MOSUNNY   82  67  60 S15       29.96F HX  84
TAYLORVILLE    NOT AVBL
$$

ILZ033-039-045-046-055>057-062-063-252100-
EAST-CENTRAL ILLINOIS

CITY           SKY/WX    TMP DP  RH WIND       PRES   REMARKS
CHAMPAIGN      PTSUNNY   84  63  49 S25G33    29.99R HX  85
MATTOON        MOSUNNY   77  61  57 S12G25    30.01R
$$

ILZ079-100>102-252100-
SOUTHWEST ILLINOIS

CITY           SKY/WX    TMP DP  RH WIND       PRES   REMARKS
ALTON          MOSUNNY   77  68  73 SE13      29.98S
CAHOKIA*       CLOUDY    81  66  60 SE15      29.96F HX  83
SPARTA*        SUNNY     76  67  74 S12G20    30.03S
$$

ILZ064>066-069>071-074>076-080>082-084>086-088>090-092>094-252100-
SOUTH-CENTRAL ILLINOIS

CITY           SKY/WX    TMP DP  RH WIND       PRES   REMARKS
CARBONDALE     PTSUNNY   74  67  78 SE9       30.03F
MARION         CLOUDY    73  68  83 SE12      30.05F
MT. VERNON     MOSUNNY   73  64  73 S13G18    30.05F
SALEM*         CLOUDY    75  67  76 S15       30.03F
$$

ILZ067-068-072-073-078-083-087-091-252100-
SOUTHEAST ILLINOIS

CITY           SKY/WX    TMP DP  RH WIND       PRES   REMARKS
LAWRENCEVILLE  PTSUNNY   75  65  70 SW17G25   30.07R
FLORA*         MOSUNNY   75  69  82 S16G23    30.05F
HARRISBURG*    CLOUDY    72  68  88 SE10      30.06F
ROBINSON*      PTSUNNY   77  65  66 SW18      30.06R
$$

ABBREVIATIONS USED IN REMARKS
   TC - TEMPERATURE IN CELSIUS
  WCI - WIND CHILL INDEX
   HX - HEAT INDEX
  VSB - VISIBILITY
$$





USA.gov is the U.S. government's official web portal to all federal, state and local government web resources and services.